NDF6026 EDDG-LOWI

Flight info

Callsign NDF6026
Flight time 1h 20m
Altitude 23000
Route DOMEG1W/25 DOMEG Z841 HEFME/N0458F310 Z841 GMH Q603 TESGA L603 BOMBI T104 WLD M867 BAVAX Z106 MANAL M736 TULSI TULSI3A
Aircraft B739/M-SDE2E3FGHIRWXY/LB1

Departure

Time 2026-05-04 09:01
Airport Münster Osnabrück Airport (EDDG)

Arrival

Time 2026-05-04 10:21
Airport Innsbruck Airport (LOWI)
Time Latitude Longitude Altitude Speed Heading
2026-05-04 08:27 52.13131 7.69207 163 ft 0 kts 198°
2026-05-04 08:52 52.13138 7.69211 163 ft 1 kts 198°
2026-05-04 08:52 52.13148 7.69216 163 ft 2 kts 186°
2026-05-04 08:53 52.13163 7.69213 163 ft 2 kts 161°
2026-05-04 08:54 52.13187 7.69126 162 ft 0 kts 71°
2026-05-04 08:57 52.13283 7.69302 163 ft 6 kts 340°
2026-05-04 09:01 52.13569 7.68987 163 ft 116 kts 251°
2026-05-04 09:01 52.13238 7.67415 186 ft 174 kts 251°
2026-05-04 09:01 52.12854 7.65604 1029 ft 170 kts 251°
2026-05-04 09:01 52.12486 7.63725 1773 ft 183 kts 252°
2026-05-04 09:02 52.12092 7.61722 2380 ft 193 kts 251°
2026-05-04 09:02 52.11649 7.59592 2921 ft 209 kts 251°
2026-05-04 09:02 52.11159 7.57286 3512 ft 224 kts 251°
2026-05-04 09:02 52.10533 7.54887 4125 ft 240 kts 239°
2026-05-04 09:03 52.09359 7.52930 4731 ft 255 kts 211°
2026-05-04 09:03 52.07630 7.52066 5505 ft 265 kts 189°
2026-05-04 09:03 52.05810 7.51787 6372 ft 270 kts 187°
2026-05-04 09:03 52.03939 7.51508 7280 ft 272 kts 188°
2026-05-04 09:04 52.02057 7.51199 8138 ft 276 kts 188°
2026-05-04 09:04 52.00164 7.50997 8978 ft 280 kts 182°
2026-05-04 09:04 51.98212 7.51288 9827 ft 285 kts 175°
2026-05-04 09:04 51.96241 7.51853 10522 ft 294 kts 173°
2026-05-04 09:05 51.94195 7.52482 11013 ft 309 kts 173°
2026-05-04 09:05 51.92049 7.53107 11483 ft 323 kts 174°
2026-05-04 09:05 51.89779 7.53730 11939 ft 339 kts 175°
2026-05-04 09:05 51.87397 7.54360 12377 ft 354 kts 175°
2026-05-04 09:06 51.84947 7.55000 12767 ft 369 kts 175°
2026-05-04 09:07 51.66313 7.61140 17614 ft 407 kts 164°
2026-05-04 09:08 51.63621 7.62681 18282 ft 411 kts 163°
2026-05-04 09:08 51.60938 7.64264 18935 ft 415 kts 163°
2026-05-04 09:08 51.58245 7.65853 19566 ft 419 kts 163°
2026-05-04 09:08 51.55496 7.67454 20211 ft 422 kts 164°
2026-05-04 09:09 51.52734 7.69045 20805 ft 426 kts 164°
2026-05-04 09:09 51.49928 7.70648 21354 ft 431 kts 165°
2026-05-04 09:09 51.47084 7.72265 21974 ft 434 kts 165°
2026-05-04 09:09 51.44267 7.73863 22550 ft 437 kts 165°
2026-05-04 09:10 51.41360 7.75505 22943 ft 441 kts 165°
2026-05-04 09:10 51.38486 7.77126 22971 ft 443 kts 165°
2026-05-04 09:10 51.35602 7.78754 22985 ft 441 kts 165°
2026-05-04 09:10 51.32710 7.80386 22984 ft 440 kts 165°
2026-05-04 09:11 51.29824 7.82014 22979 ft 440 kts 165°
2026-05-04 09:11 51.26957 7.83628 22982 ft 439 kts 165°
2026-05-04 09:11 51.24057 7.85257 22978 ft 439 kts 165°
2026-05-04 09:11 51.21172 7.86883 22985 ft 440 kts 164°
2026-05-04 09:12 51.18349 7.88656 22982 ft 442 kts 161°
2026-05-04 09:12 51.15581 7.90800 22979 ft 445 kts 156°
2026-05-04 09:14 50.97133 8.09345 22984 ft 450 kts 151°
2026-05-04 09:14 50.94516 8.12012 22989 ft 450 kts 151°
2026-05-04 09:14 50.91859 8.14708 22989 ft 450 kts 151°
2026-05-04 09:14 50.89248 8.17346 22992 ft 450 kts 151°
2026-05-04 09:15 50.86609 8.20004 22992 ft 449 kts 151°
2026-05-04 09:15 50.83984 8.22643 22991 ft 448 kts 151°
2026-05-04 09:15 50.81363 8.25270 22995 ft 448 kts 151°
2026-05-04 09:15 50.78731 8.27905 22996 ft 448 kts 151°
2026-05-04 09:17 50.57677 8.48851 22985 ft 449 kts 151°
2026-05-04 09:18 50.55043 8.51456 22982 ft 448 kts 151°
2026-05-04 09:18 50.52415 8.54052 22979 ft 449 kts 151°
2026-05-04 09:18 50.49784 8.56644 22978 ft 449 kts 151°
2026-05-04 09:18 50.47105 8.59203 22977 ft 448 kts 153°
2026-05-04 09:19 50.44382 8.61474 22978 ft 445 kts 158°
2026-05-04 09:19 50.41540 8.63327 22977 ft 443 kts 162°
2026-05-04 09:19 50.38643 8.64880 22976 ft 441 kts 165°
2026-05-04 09:19 50.35696 8.66289 22977 ft 440 kts 167°
2026-05-04 09:20 50.32765 8.67624 22977 ft 441 kts 167°
2026-05-04 09:20 50.29830 8.68943 22976 ft 441 kts 167°
2026-05-04 09:20 50.26860 8.70280 22977 ft 441 kts 167°
2026-05-04 09:20 50.23926 8.71609 22979 ft 440 kts 167°
2026-05-04 09:21 50.20993 8.72946 22981 ft 441 kts 167°
2026-05-04 09:21 50.18084 8.74279 22981 ft 441 kts 167°
2026-05-04 09:21 50.15116 8.75644 22983 ft 441 kts 167°
2026-05-04 09:21 50.12209 8.76985 22983 ft 441 kts 167°
2026-05-04 09:22 50.09282 8.78458 22983 ft 443 kts 163°
2026-05-04 09:22 50.06450 8.80356 22982 ft 446 kts 156°
2026-05-04 09:22 50.03785 8.82918 22980 ft 450 kts 148°
2026-05-04 09:22 50.01312 8.85917 22981 ft 452 kts 143°
2026-05-04 09:23 49.98947 8.89098 22980 ft 453 kts 141°
2026-05-04 09:23 49.96622 8.92386 22976 ft 452 kts 140°
2026-05-04 09:23 49.94331 8.95690 22979 ft 452 kts 140°
2026-05-04 09:23 49.92029 8.99020 22977 ft 453 kts 140°
2026-05-04 09:25 49.75803 9.22000 22983 ft 453 kts 140°
2026-05-04 09:25 49.73463 9.25265 22980 ft 452 kts 140°
2026-05-04 09:26 49.71128 9.28516 22989 ft 452 kts 140°
2026-05-04 09:26 49.68797 9.31757 22994 ft 452 kts 141°
2026-05-04 09:26 49.66457 9.35005 22991 ft 452 kts 141°
2026-05-04 09:26 49.64125 9.38238 22993 ft 451 kts 141°
2026-05-04 09:27 49.61837 9.41465 22994 ft 451 kts 139°
2026-05-04 09:27 49.59632 9.44921 22995 ft 452 kts 135°
2026-05-04 09:27 49.57539 9.48489 23003 ft 452 kts 134°
2026-05-04 09:27 49.55477 9.52147 22999 ft 453 kts 133°
2026-05-04 09:28 49.53429 9.55831 23000 ft 452 kts 133°
2026-05-04 09:28 49.51379 9.59516 23004 ft 454 kts 133°
2026-05-04 09:28 49.49332 9.63176 23004 ft 454 kts 133°
2026-05-04 09:28 49.47271 9.66834 23010 ft 452 kts 134°
2026-05-04 09:29 49.45205 9.70478 23009 ft 453 kts 134°
2026-05-04 09:29 49.43156 9.74072 23014 ft 452 kts 134°
2026-05-04 09:29 49.41065 9.77726 23014 ft 452 kts 134°
2026-05-04 09:29 49.39014 9.81296 23019 ft 452 kts 134°
2026-05-04 09:30 49.36923 9.84927 23019 ft 452 kts 134°
2026-05-04 09:30 49.34851 9.88511 23020 ft 451 kts 134°
2026-05-04 09:30 49.32752 9.92133 23022 ft 452 kts 134°
2026-05-04 09:30 49.30657 9.95741 23021 ft 451 kts 134°
2026-05-04 09:31 49.28579 9.99315 23023 ft 452 kts 134°
2026-05-04 09:31 49.26512 10.02865 23022 ft 452 kts 134°
2026-05-04 09:31 49.24416 10.06460 23022 ft 451 kts 134°
2026-05-04 09:31 49.22311 10.10065 23025 ft 452 kts 134°
2026-05-04 09:32 49.20231 10.13622 23024 ft 452 kts 134°
2026-05-04 09:32 49.18134 10.17203 23021 ft 451 kts 134°
2026-05-04 09:34 49.03215 10.41682 23018 ft 451 kts 136°
2026-05-04 09:34 49.01031 10.45156 23014 ft 451 kts 136°
2026-05-04 09:34 48.98871 10.48589 23017 ft 450 kts 136°
2026-05-04 09:34 48.96701 10.52035 23020 ft 451 kts 136°
2026-05-04 09:35 48.94539 10.55466 23017 ft 451 kts 136°
2026-05-04 09:35 48.92370 10.58908 23016 ft 451 kts 135°
2026-05-04 09:35 48.90214 10.62328 23015 ft 451 kts 135°
2026-05-04 09:35 48.88045 10.65767 23015 ft 451 kts 136°
2026-05-04 09:37 48.72815 10.89763 23019 ft 453 kts 136°
2026-05-04 09:37 48.70628 10.93182 23019 ft 453 kts 136°
2026-05-04 09:38 48.68433 10.96606 23020 ft 452 kts 136°
2026-05-04 09:38 48.66230 11.00038 23021 ft 452 kts 136°
2026-05-04 09:38 48.64063 11.03407 23021 ft 451 kts 136°
2026-05-04 09:38 48.61881 11.06794 23023 ft 452 kts 136°
2026-05-04 09:39 48.59680 11.10205 23022 ft 451 kts 136°
2026-05-04 09:39 48.57510 11.13573 23021 ft 452 kts 136°
2026-05-04 09:39 48.55369 11.17059 23018 ft 453 kts 134°
2026-05-04 09:39 48.53284 11.20636 23021 ft 454 kts 133°
2026-05-04 09:40 48.51241 11.24226 23022 ft 454 kts 132°
2026-05-04 09:40 48.49171 11.27887 23020 ft 454 kts 132°
2026-05-04 09:40 48.47146 11.31464 23019 ft 455 kts 132°
2026-05-04 09:40 48.45061 11.35129 23017 ft 455 kts 132°
2026-05-04 09:41 48.43006 11.38720 23020 ft 455 kts 132°
2026-05-04 09:42 48.28374 11.63460 23013 ft 452 kts 139°
2026-05-04 09:43 48.25865 11.66263 23013 ft 449 kts 151°
2026-05-04 09:43 48.23081 11.68289 23013 ft 447 kts 161°
2026-05-04 09:43 48.20093 11.69734 23013 ft 446 kts 166°
2026-05-04 09:43 48.17108 11.70898 23008 ft 445 kts 168°
2026-05-04 09:44 48.14099 11.71950 23008 ft 446 kts 169°
2026-05-04 09:44 48.11050 11.72965 23006 ft 446 kts 169°
2026-05-04 09:44 48.08047 11.73951 23004 ft 445 kts 169°
2026-05-04 09:46 47.86822 11.79831 23013 ft 443 kts 180°
2026-05-04 09:46 47.83763 11.79832 23028 ft 442 kts 182°
2026-05-04 09:46 47.80677 11.79694 23037 ft 443 kts 184°
2026-05-04 09:47 47.77629 11.79495 23040 ft 442 kts 184°
2026-05-04 09:47 47.74529 11.79261 23051 ft 443 kts 184°
2026-05-04 09:49 47.53347 11.83765 23089 ft 441 kts 193°
2026-05-04 09:49 47.50402 11.82531 23096 ft 439 kts 201°
2026-05-04 09:49 47.47559 11.80859 23103 ft 439 kts 205°
2026-05-04 09:51 47.35772 11.61554 22841 ft 435 kts 252°
2026-05-04 09:51 47.35049 11.57199 22534 ft 437 kts 260°
2026-05-04 09:51 47.34686 11.52799 21729 ft 437 kts 264°
2026-05-04 09:51 47.34462 11.48353 20774 ft 438 kts 268°
2026-05-04 09:52 47.34621 11.43886 20063 ft 430 kts 278°
2026-05-04 09:52 47.35237 11.39692 19366 ft 417 kts 281°
2026-05-04 09:52 47.35670 11.35573 18665 ft 404 kts 274°
2026-05-04 09:52 47.35772 11.31507 18020 ft 392 kts 268°
2026-05-04 09:53 47.35631 11.27463 17351 ft 404 kts 264°
2026-05-04 09:53 47.35361 11.23329 16642 ft 407 kts 262°
2026-05-04 09:53 47.35029 11.19219 15951 ft 401 kts 261°
2026-05-04 09:53 47.34658 11.15245 15487 ft 392 kts 260°
2026-05-04 09:54 47.34255 11.11295 15225 ft 378 kts 259°
2026-05-04 09:54 47.33855 11.07593 15111 ft 362 kts 259°
2026-05-04 09:54 47.33457 11.03986 14970 ft 348 kts 259°
2026-05-04 09:54 47.33071 11.00524 14819 ft 336 kts 259°
2026-05-04 09:55 47.32697 10.97182 14656 ft 324 kts 259°
2026-05-04 09:55 47.32336 10.93988 14478 ft 314 kts 259°
2026-05-04 09:55 47.31984 10.90876 14327 ft 302 kts 259°
2026-05-04 09:55 47.31641 10.87860 14188 ft 292 kts 258°
2026-05-04 09:56 47.31313 10.84993 14039 ft 282 kts 258°
2026-05-04 09:56 47.30989 10.82174 13903 ft 269 kts 258°
2026-05-04 09:56 47.30700 10.79601 13764 ft 244 kts 258°
2026-05-04 09:56 47.30438 10.77224 13622 ft 223 kts 258°
2026-05-04 09:57 47.30189 10.75027 13558 ft 212 kts 258°
2026-05-04 09:57 47.29957 10.72999 13500 ft 189 kts 257°
2026-05-04 09:57 47.29749 10.71228 13384 ft 168 kts 257°
2026-05-04 09:57 47.29546 10.69549 13316 ft 166 kts 257°
2026-05-04 09:58 47.29347 10.67866 13244 ft 166 kts 255°
2026-05-04 09:58 47.28896 10.66369 13175 ft 161 kts 226°
2026-05-04 09:58 47.27986 10.65443 13105 ft 158 kts 202°
2026-05-04 10:00 47.25608 10.72333 12208 ft 177 kts 41°
2026-05-04 10:00 47.26560 10.73473 11918 ft 175 kts 43°
2026-05-04 10:02 47.29934 10.83502 10071 ft 159 kts 89°
2026-05-04 10:04 47.30468 10.94610 8373 ft 154 kts 89°
2026-05-04 10:04 47.30544 10.96160 8126 ft 153 kts 88°
2026-05-04 10:04 47.30619 10.97708 7877 ft 151 kts 88°
2026-05-04 10:04 47.30694 10.99245 7640 ft 150 kts 89°
2026-05-04 10:05 47.30768 11.00768 7399 ft 150 kts 88°
2026-05-04 10:05 47.30841 11.02287 7155 ft 148 kts 88°
2026-05-04 10:05 47.30914 11.03807 6917 ft 148 kts 88°
2026-05-04 10:05 47.30985 11.05303 6685 ft 148 kts 89°
2026-05-04 10:06 47.30977 11.06812 6447 ft 146 kts 99°
2026-05-04 10:06 47.30713 11.08248 6217 ft 145 kts 113°
2026-05-04 10:06 47.30304 11.09599 6008 ft 144 kts 116°
2026-05-04 10:08 47.27426 11.17240 4486 ft 138 kts 117°
2026-05-04 10:08 47.26975 11.18540 4393 ft 142 kts 116°
2026-05-04 10:08 47.26578 11.19846 4194 ft 141 kts 113°
2026-05-04 10:08 47.26208 11.21179 3980 ft 143 kts 111°
2026-05-04 10:09 47.25847 11.22545 3629 ft 140 kts 113°
2026-05-04 10:09 47.25479 11.23856 3310 ft 137 kts 114°
2026-05-04 10:09 47.25118 11.25123 3039 ft 135 kts 114°
2026-05-04 10:09 47.24940 11.26437 2776 ft 131 kts 83°
2026-05-04 10:10 47.25269 11.27676 2552 ft 129 kts 70°
2026-05-04 10:10 47.25476 11.28935 2429 ft 126 kts 88°
2026-05-04 10:10 47.25574 11.30213 2334 ft 128 kts 82°
2026-05-04 10:10 47.25706 11.31508 2233 ft 130 kts 83°
2026-05-04 10:11 47.25850 11.32813 2027 ft 132 kts 85°
2026-05-04 10:11 47.26001 11.34094 1933 ft 123 kts 83°
2026-05-04 10:11 47.26134 11.35360 2590 ft 122 kts 87°
2026-05-04 10:11 47.26237 11.36492 3249 ft 122 kts 86°
2026-05-04 10:12 47.26298 11.37808 3734 ft 131 kts 90°
2026-05-04 10:12 47.26400 11.39162 4176 ft 145 kts 76°
2026-05-04 10:12 47.26701 11.40621 4658 ft 158 kts 79°
2026-05-04 10:12 47.26902 11.42246 5183 ft 169 kts 83°
2026-05-04 10:13 47.27078 11.44030 5684 ft 186 kts 83°
2026-05-04 10:13 47.27432 11.45949 6121 ft 210 kts 70°
2026-05-04 10:13 47.28030 11.48116 6282 ft 248 kts 70°
2026-05-04 10:13 47.28701 11.50627 6588 ft 277 kts 70°
2026-05-04 10:14 47.29421 11.53458 6769 ft 314 kts 71°
2026-05-04 10:14 47.30116 11.56521 6805 ft 312 kts 79°
2026-05-04 10:16 47.26662 11.48959 5609 ft 200 kts 253°
2026-05-04 10:16 47.26353 11.47050 5368 ft 187 kts 255°
2026-05-04 10:16 47.26082 11.45293 5257 ft 167 kts 253°
2026-05-04 10:16 47.25815 11.43713 5176 ft 156 kts 253°
2026-05-04 10:17 47.25561 11.42185 4946 ft 154 kts 253°
2026-05-04 10:17 47.25310 11.40652 4625 ft 154 kts 253°
2026-05-04 10:19 47.23644 11.30111 3221 ft 151 kts 266°
2026-05-04 10:19 47.23796 11.28571 3191 ft 152 kts 289°
2026-05-04 10:19 47.24423 11.27359 2931 ft 152 kts 327°
2026-05-04 10:19 47.25412 11.27307 2363 ft 149 kts 47°
2026-05-04 10:20 47.25722 11.28506 2273 ft 121 kts 101°
2026-05-04 10:20 47.25571 11.29756 2180 ft 124 kts 95°
2026-05-04 10:20 47.25670 11.31030 2124 ft 126 kts 86°
2026-05-04 10:20 47.25790 11.32324 2075 ft 127 kts 82°
2026-05-04 10:21 47.25926 11.33546 1951 ft 115 kts 83°
2026-05-04 10:21 47.26030 11.34522 1926 ft 58 kts 81°
2026-05-04 10:21 47.26072 11.34888 1923 ft 29 kts 81°
2026-05-04 10:21 47.26103 11.35170 1920 ft 17 kts 81°
2026-05-04 10:22 47.25946 11.35289 1919 ft 12 kts 170°
2026-05-04 10:22 47.25879 11.35301 1919 ft 6 kts 171°
2026-05-04 10:22 47.25856 11.35307 1919 ft 0 kts 170°